Date String (YYYY-MM-DD hh:mm:ss) UTC,Instrument flags,Ambient pressure (hPa),Sample flow (lpm),Bypass flow (lpm),Sample temperature (°C),Ambient temperature (°C),ASC tube jacket temperature (°C),LED temperature (°C),Box temperature (°C),Sample RH (%),Span deviation,Mass concentration (μg/m³),Mass concentration (μg/m³),Mass concentration (μg/m³)
DateTimeUTC,F1_M11,P_M11,Q1_M11,Q2_M11,T1_M11,T2_M11,T3_M11,T4_M11,T5_M11,U1_M11,ZSPAN_M11,X0_M11,X2_M11,X1_M11
2022-03-10 13:00:00,,0823.0,4.99,0.00,22.5,23.0,00.0,31.4,24.4,04.8,0000.0,0005.03,0004.00,0003.82
2022-03-10 13:01:00,,0822.9,4.98,0.00,22.6,22.7,00.0,31.4,24.4,04.8,0000.0,0005.06,0004.01,0003.83
2022-03-10 13:02:00,,0823.0,5.00,0.00,22.5,22.4,00.0,31.4,24.3,04.8,0000.0,0005.08,0004.01,0003.83
2022-03-10 13:03:00,,0822.9,5.00,0.00,22.5,22.1,00.0,31.4,24.2,04.8,0000.0,0005.07,0004.00,0003.83
2022-03-10 13:04:00,,0822.8,5.00,0.00,22.5,21.9,00.0,31.4,24.2,04.8,0000.0,0005.07,0003.99,0003.82
2022-03-10 13:05:00,,0822.9,5.01,0.00,22.4,21.7,00.0,31.4,24.1,04.8,0000.0,0005.08,0003.99,0003.82
2022-03-10 13:06:00,,0823.0,5.00,0.00,22.4,21.6,00.0,31.4,24.1,04.8,0000.0,0005.15,0004.00,0003.81
2022-03-10 13:07:00,,0822.9,4.99,0.00,22.3,21.5,00.0,31.4,24.0,04.8,0000.0,0005.05,0003.98,0003.81
2022-03-10 13:08:00,,0822.9,4.99,0.00,22.3,21.4,00.0,31.4,24.0,04.8,0000.0,0005.14,0003.99,0003.80
2022-03-10 13:09:00,,0822.9,5.01,0.00,22.3,21.6,00.0,31.4,24.0,04.8,0000.0,0005.25,0004.01,0003.79
2022-03-10 13:10:00,,0822.9,4.99,0.00,22.4,22.4,00.0,31.4,24.2,04.8,0000.0,0005.44,0004.03,0003.79
2022-03-10 13:11:00,,0822.8,5.01,0.00,22.5,23.0,00.0,31.4,24.4,04.7,0000.0,0005.42,0004.02,0003.79
2022-03-10 13:12:00,,0822.7,4.99,0.00,22.6,23.0,00.0,31.5,24.5,04.7,0000.0,0005.38,0004.00,0003.77
2022-03-10 13:13:00,,0822.8,5.01,0.00,22.6,22.7,00.0,31.5,24.5,04.7,0000.0,0005.38,0004.00,0003.78
2022-03-10 13:14:00,,0822.9,5.00,0.00,22.6,22.4,00.0,31.5,24.4,04.7,0000.0,0005.41,0004.00,0003.77
2022-03-10 13:15:00,,0823.0,5.00,0.00,22.6,22.1,00.0,31.5,24.3,04.7,0000.0,0005.40,0004.00,0003.76
2022-03-10 13:16:00,,0823.0,5.00,0.00,22.5,21.9,00.0,31.4,24.2,04.7,0000.0,0005.49,0004.01,0003.76
2022-03-10 13:17:00,,0822.8,4.99,0.00,22.5,21.7,00.0,31.4,24.1,04.7,0000.0,0005.60,0004.02,0003.77
2022-03-10 13:18:00,,0822.8,5.01,0.00,22.4,21.6,00.0,31.4,24.1,04.7,0000.0,0005.72,0004.05,0003.77
2022-03-10 13:19:00,,0822.7,5.00,0.00,22.4,21.5,00.0,31.4,24.0,04.7,0000.0,0005.61,0004.02,0003.76
2022-03-10 13:20:00,,0822.7,5.00,0.00,22.3,21.4,00.0,31.4,24.0,04.7,0000.0,0005.56,0004.01,0003.76
2022-03-10 13:21:00,,0822.9,5.00,0.00,22.4,21.8,00.0,31.4,24.0,04.8,0000.0,0005.44,0004.00,0003.75
2022-03-10 13:22:00,,0822.9,5.01,0.00,22.5,22.6,00.0,31.4,24.3,04.7,0000.0,0005.36,0004.00,0003.76
2022-03-10 13:23:00,,0822.9,4.99,0.00,22.6,23.1,00.0,31.5,24.5,04.7,0000.0,0005.42,0004.02,0003.77
2022-03-10 13:24:00,,0822.9,5.01,0.00,22.7,22.9,00.0,31.5,24.5,04.7,0000.0,0005.38,0004.02,0003.77
2022-03-10 13:25:00,,0822.9,4.99,0.00,22.6,22.6,00.0,31.5,24.5,04.7,0000.0,0005.32,0004.01,0003.78
2022-03-10 13:26:00,,0822.9,5.01,0.00,22.6,22.4,00.0,31.5,24.4,04.7,0000.0,0005.28,0004.01,0003.79
2022-03-10 13:27:00,,0822.9,4.99,0.00,22.6,22.1,00.0,31.5,24.3,04.7,0000.0,0005.24,0004.01,0003.79
2022-03-10 13:28:00,,0822.9,5.00,0.00,22.5,21.9,00.0,31.5,24.2,04.7,0000.0,0005.20,0004.00,0003.78
2022-03-10 13:29:00,,0822.8,5.01,0.00,22.5,21.7,00.0,31.5,24.2,04.8,0000.0,0005.20,0003.98,0003.78
2022-03-10 13:30:00,,0822.8,5.00,0.00,22.4,21.6,00.0,31.5,24.1,04.8,0000.0,0005.24,0004.00,0003.78
2022-03-10 13:31:00,,0822.9,4.99,0.00,22.4,21.5,00.0,31.4,24.0,04.8,0000.0,0005.18,0003.99,0003.78
2022-03-10 13:32:00,,0822.9,5.02,0.00,22.4,21.5,00.0,31.4,24.0,04.8,0000.0,0005.65,0003.98,0003.78
2022-03-10 13:33:00,,0822.9,5.00,0.00,22.4,22.1,00.0,31.4,24.1,04.8,0000.0,0005.93,0003.98,0003.77
2022-03-10 13:34:00,,0823.0,4.99,0.00,22.5,22.8,00.0,31.5,24.3,04.8,0000.0,0005.90,0003.98,0003.77
2022-03-10 13:35:00,,0823.0,5.00,0.00,22.6,23.0,00.0,31.5,24.5,04.8,0000.0,0005.88,0003.97,0003.76
2022-03-10 13:36:00,,0823.1,5.01,0.00,22.7,22.8,00.0,31.5,24.5,04.8,0000.0,0005.99,0003.99,0003.76
2022-03-10 13:37:00,,0823.1,5.01,0.00,22.6,22.5,00.0,31.5,24.4,04.8,0000.0,0006.06,0004.00,0003.76
2022-03-10 13:38:00,,0823.1,4.99,0.00,22.6,22.2,00.0,31.5,24.3,04.8,0000.0,0006.02,0004.00,0003.76
2022-03-10 13:39:00,,0823.1,4.99,0.00,22.6,22.0,00.0,31.5,24.3,04.9,0000.0,0005.95,0003.99,0003.76
2022-03-10 13:40:00,,0823.2,5.00,0.00,22.5,21.8,00.0,31.5,24.2,04.9,0000.0,0005.79,0003.97,0003.76
2022-03-10 13:41:00,,0823.2,4.99,0.00,22.5,21.7,00.0,31.5,24.1,05.0,0000.0,0005.74,0003.97,0003.76
2022-03-10 13:42:00,,0823.3,5.01,0.00,22.4,21.6,00.0,31.5,24.1,05.0,0000.0,0005.78,0003.99,0003.78
2022-03-10 13:43:00,,0823.3,5.00,0.00,22.4,21.4,00.0,31.4,24.0,05.0,0000.0,0005.70,0004.02,0003.81
2022-03-10 13:44:00,,0823.3,5.00,0.00,22.4,21.6,00.0,31.4,24.0,05.1,0000.0,0005.42,0004.05,0003.83
2022-03-10 13:45:00,,0823.2,5.00,0.00,22.4,22.3,00.0,31.5,24.2,05.1,0000.0,0005.45,0004.07,0003.84
2022-03-10 13:46:00,,0823.2,4.99,0.00,22.6,23.1,00.0,31.5,24.5,05.1,0000.0,0005.60,0004.10,0003.86
2022-03-10 13:47:00,,0823.2,4.99,0.00,22.7,23.2,00.0,31.5,24.6,05.1,0000.0,0005.59,0004.10,0003.87
2022-03-10 13:48:00,,0823.2,5.01,0.00,22.7,22.9,00.0,31.5,24.6,05.1,0000.0,0005.59,0004.11,0003.89
2022-03-10 13:49:00,,0823.2,5.00,0.00,22.7,22.5,00.0,31.5,24.5,05.1,0000.0,0005.58,0004.12,0003.90
2022-03-10 13:50:00,,0823.2,5.00,0.00,22.7,22.3,00.0,31.5,24.4,05.1,0000.0,0005.61,0004.13,0003.91
2022-03-10 13:51:00,,0823.2,5.00,0.00,22.6,22.0,00.0,31.5,24.3,05.2,0000.0,0005.71,0004.13,0003.92
2022-03-10 13:52:00,,0823.1,5.01,0.00,22.6,21.8,00.0,31.5,24.2,05.2,0000.0,0005.73,0004.13,0003.91
2022-03-10 13:53:00,,0823.2,4.99,0.00,22.5,21.7,00.0,31.5,24.2,05.2,0000.0,0005.69,0004.12,0003.91
2022-03-10 13:54:00,,0823.2,5.01,0.00,22.5,21.6,00.0,31.5,24.1,05.2,0000.0,0005.47,0004.11,0003.90
2022-03-10 13:55:00,,0823.2,4.99,0.00,22.4,21.5,00.0,31.5,24.1,05.3,0000.0,0005.34,0004.10,0003.90
2022-03-10 13:56:00,,0823.1,4.99,0.00,22.4,21.6,00.0,31.5,24.0,05.3,0000.0,0005.29,0004.09,0003.89
2022-03-10 13:57:00,,0823.1,5.00,0.00,22.4,22.2,00.0,31.5,24.2,05.3,0000.0,0005.17,0004.06,0003.88
2022-03-10 13:58:00,,0823.2,5.00,0.00,22.6,23.0,00.0,31.5,24.4,05.3,0000.0,0005.17,0004.04,0003.87
2022-03-10 13:59:00,,0823.1,5.01,0.00,22.7,23.3,00.0,31.5,24.6,05.3,0000.0,0005.53,0004.05,0003.86
